Torna al catalogo

FENGYUN 1C DEB

AttivoPO
NORAD 37595·DEBRIS·🇨🇳 China

Lanciato May 10, 1999 da Taiyuan Satellite Launch Center

Loading…

Prossimi Passaggi (prossime 24 ore)

TLE

AggiornatoSource: Space-Track

Epoca: Sep 12, 2026, 11:47 UTC

1 37595U 99025EKP 26255.49112561  .00022560  00000-0  25302-2 0  9992
2 37595  99.0392 143.8964 0015686 226.3849 261.3779 14.86731780666534

Traccia FENGYUN 1C DEB in tempo reale con AllMySat

Download on the App Store